Погода в Великом Бычкове

Украина / Закарпатская область     47°58′18″N   24°00′02″E
темп.,
°C
ветер,
м/с
пор.,
м/с
влажн.,
%
обл.,
%
осадки,
мм/ч
давл.,
гПа
погр.,
м
5 марта, пт
пт523:00+4юв228289 0.0 101526
02:00+4вюв228488 0.3 101455
05:00+3ююв1288100 0.6 1013102
08:00+3ююв2392100 1.4 1012149
11:00+4ююв2393100 0.4 1012191
14:00+3ююв2396100 2.3 1012224
17:00+4ююв0198100 3.4 101498
20:000св4794100 7.8 1018444
6 марта, сб
сб623:000ссв2486100 0.8 1022183
02:00−3св2379100 0.9 1025132
05:00−3св2376100 0.0 1026136
08:00−4ссв237190 0.0 1029157
11:000ссз23470 0.0 10301233
14:00+2зсз234518 0.0 10291626
17:00+1зсз345499 0.1 10301352
20:00−3зсз117567 0.1 103222
7 марта, вс
вс723:00−4ссв11770 0.0 103228
02:00−4всв11770 0.0 103226
05:00−4вюв01770 0.0 103022
08:00−3юв11722 0.0 1029123
11:00+1зюз244919 0.0 10261313
14:00+3з354530 0.0 10241460
17:00+2зсз24540 0.0 10211129
20:00−2юв11706 0.0 102221
8 марта, пн
пн823:00−2юв117422 0.0 102123
02:00−3юв117518 0.0 102021
05:00−3юв117555 0.0 101922
08:00−2юв116975 0.0 101880
11:00+2зюз135226 0.0 10171163
14:00+3зсз355163 0.0 10161497
17:00+2зсз236074 0.1 1016886
20:00−1зсз117670 0.1 101821
9 марта, вт
вт923:00−2с118336 0.0 102032
02:00−3ссв228445 0.1 102169
05:00−5ссв22690 0.0 102182
08:00−4св226116 0.0 1022182
11:000ссв123987 0.0 1022791
14:00+2с223594 0.0 10221322
17:00+1ссв2453100 0.0 1021612
20:00−3св2372100 0.0 1023120